Hobart, OK

12:01 PM CDT on June 29, 2017 (GMT -0500)
Hobart Municipal

Weather History for KHBR - April, 2013

Change the Weather History Date:

Thursday, April 18, 2013

  Actual Average Record
Temperature  
Mean Temperature 43 °F -  
Max Temperature 52 °F 70 °F 91 °F (2011)
Min Temperature 32 °F 45 °F 30 °F (1999)
Degree Days  
Heating Degree Days 22    
Moisture  
Dew Point 32 °F    
Average Humidity 69    
Maximum Humidity 96    
Minimum Humidity 39    
Precipitation  
Precipitation 0.01 in - - ()
Sea Level Pressure  
Sea Level Pressure 29.99 in    
Wind  
Wind Speed 24 mph (NNW)    
Max Wind Speed 36 mph    
Max Gust Speed 41 mph    
Visibility 9 miles    
Events Rain    
Averages and records for this station are not official NWS values.
T = Trace of Precipitation, MM = Missing Value Source: NWS Daily Summary

Daily Weather History Graph

Daily Weather History Graph

Search for Another Location

Airport or City:

Trip Planner

Search our weather history database for the weather conditions in past years. The results will help you decide how hot, cold, wet, or windy it might be!

Date:

Astronomy

Apr. 18, 2013 Rise Set
Actual Time 7:00 AM CDT 8:11 PM CDT
Civil Twilight 6:33 AM CDT 8:37 PM CDT
Nautical Twilight 6:02 AM CDT 9:08 PM CDT
Astronomical Twilight 5:30 AM CDT 9:41 PM CDT
Moon 1:15 PM CDT (4/18) 2:23 AM CDT (4/18)
Length of Visible Light 14h 03m
Length of Day
13h 11m
First Quarter, 52% of the Moon is Illuminated
Apr 18
First Quarter
Apr 25
Full
May 2
Last Quarter
May 9
New
May 17
First Quarter

Hourly Weather History & Observations

Time (CDT) Temp. Windchill Dew Point Humidity Pressure Visibility Wind Dir Wind Speed Gust Speed Precip Events Conditions
12:41 AM 42.8 °F 32.9 °F 41.0 °F 93% 29.76 in 3.0 mi North 26.5 mph 34.5 mph 0.00 in Rain Light Rain
12:53 AM 42.1 °F 32.6 °F 41.0 °F 96% 29.76 in 3.0 mi North 23.0 mph 34.5 mph 0.00 in Rain Light Rain
1:41 AM 41.0 °F 29.7 °F 39.2 °F 93% 29.80 in 5.0 mi NNW 31.1 mph 39.1 mph 0.01 in Rain Light Rain
1:53 AM 41.0 °F 29.8 °F 37.9 °F 89% 29.79 in 9.0 mi NNW 29.9 mph 39.1 mph 0.01 in Rain Light Rain
2:14 AM 41.0 °F 29.7 °F 37.4 °F 87% 29.80 in 10.0 mi North 31.1 mph 40.3 mph 0.00 in Rain Light Rain
2:53 AM 41.0 °F 31.6 °F 37.0 °F 86% 29.85 in 10.0 mi North 20.7 mph 33.4 mph 0.00 in   Overcast
3:23 AM 41.0 °F 30.9 °F 37.4 °F 87% 29.83 in 10.0 mi North 24.2 mph 32.2 mph N/A   Overcast
3:53 AM 39.9 °F 27.5 °F 35.1 °F 83% 29.81 in 10.0 mi North 35.7 mph 41.4 mph N/A   Overcast
4:53 AM 37.9 °F 25.9 °F 33.1 °F 83% 29.87 in 10.0 mi North 28.8 mph 41.4 mph N/A   Overcast
5:53 AM 37.0 °F 26.2 °F 30.9 °F 79% 29.92 in 10.0 mi North 21.9 mph 29.9 mph N/A   Overcast
6:53 AM 37.0 °F 26.7 °F 30.0 °F 76% 29.97 in 10.0 mi NNW 19.6 mph 32.2 mph N/A   Overcast
7:53 AM 37.0 °F 24.7 °F 28.9 °F 73% 29.99 in 10.0 mi North 28.8 mph 36.8 mph N/A   Overcast
8:53 AM 37.0 °F 24.5 °F 28.0 °F 70% 30.01 in 10.0 mi North 29.9 mph 38.0 mph N/A   Overcast
9:53 AM 37.9 °F 26.6 °F 28.9 °F 70% 30.04 in 10.0 mi North 25.3 mph 34.5 mph N/A   Overcast
10:53 AM 42.1 °F 33.1 °F 30.9 °F 65% 30.04 in 10.0 mi North 20.7 mph 31.1 mph N/A   Mostly Cloudy
11:26 AM 44.6 °F 35.7 °F 32.0 °F 61% 30.03 in 10.0 mi North 24.2 mph 32.2 mph N/A   Scattered Clouds
11:53 AM 44.1 °F 35.2 °F 30.9 °F 60% 30.05 in 10.0 mi North 23.0 mph 27.6 mph N/A   Overcast
12:53 PM 46.9 °F - 30.9 °F 54% 30.05 in 10.0 mi NNW 21.9 mph 32.2 mph N/A   Mostly Cloudy
1:53 PM 48.0 °F - 30.9 °F 52% 30.04 in 10.0 mi North 25.3 mph 33.4 mph N/A   Scattered Clouds
2:53 PM 51.1 °F - 30.9 °F 46% 30.05 in 10.0 mi North 24.2 mph 33.4 mph N/A   Mostly Cloudy
3:53 PM 51.1 °F - 30.0 °F 44% 30.05 in 10.0 mi North 27.6 mph 34.5 mph N/A   Partly Cloudy
4:53 PM 51.1 °F - 28.0 °F 41% 30.05 in 10.0 mi NNW 24.2 mph 33.4 mph N/A   Partly Cloudy
5:53 PM 51.1 °F - 27.0 °F 39% 30.07 in 10.0 mi NNW 21.9 mph 28.8 mph N/A   Clear
6:53 PM 48.9 °F - 25.0 °F 39% 30.09 in 10.0 mi NNW 17.3 mph 27.6 mph N/A   Partly Cloudy
7:53 PM 46.0 °F 39.3 °F 26.1 °F 46% 30.13 in 10.0 mi NNW 16.1 mph 24.2 mph N/A   Clear
8:53 PM 39.9 °F 34.5 °F 27.0 °F 60% 30.16 in 10.0 mi NNW 8.1 mph - N/A   Clear
9:53 PM 36.0 °F 30.3 °F 28.0 °F 73% 30.20 in 10.0 mi North 6.9 mph - N/A   Clear
10:53 PM 35.1 °F 28.6 °F 28.0 °F 76% 30.20 in 10.0 mi NNW 8.1 mph - N/A   Clear
11:53 PM 32.0 °F 26.4 °F 27.0 °F 82% 30.20 in 10.0 mi NW 5.8 mph - N/A   Clear